Preview of NWS' New Version of Forecast
This preview is not operational and should not be used for support decisions.

Regional Weather Roundup (RWR)

Issued by National Weather Service (NWS)

                            
000
ASUS42 KTBW 211916
RWRFL 
FLORIDA REGIONAL WEATHER ROUNDUP
NATIONAL WEATHER SERVICE TAMPA BAY RUSKIN FL
300 PM EDT SUN APR 21 2019

NOTE: "FAIR" INDICATES FEW OR NO CLOUDS BELOW 12,000 FEET WITH NO
SIGNIFICANT WEATHER AND/OR OBSTRUCTIONS TO VISIBILITY.

FLZ001>010-012>015-112-114-115-212000-
PANHANDLE FLORIDA
  
CITY           SKY/WX    TMP DP  RH WIND       PRES   REMARKS
PENSACOLA      FAIR      74  34  23 SE5       30.15F                  
PENSACOLA NAS  FAIR      72  38  29 S13       30.16F                  
MILTON NAS     FAIR      76  36  23 MISG      30.14F                  
CRESTVIEW      FAIR      78  29  16 CALM      30.15F                  
PANAMA CITY    FAIR      75  36  24 S9        30.13F                  
APALACHICOLA   FAIR      73  41  31 SW15      30.14F                  

STATION/POSITION SKY/WX   TEMP    WIND        PRES    WAVE   SWELL
                          AIR SEA DIR/SP/G            HT/PER HT/PER
                          (F)     (DEG/KT/KT) (MB)    (FT/S) (FT/S)
30.1N   87.6W                                 1022.1F   1/ 7   2/ 7
29.2N   88.2W                      90/  6/  8 1022.1
PANAMA CITY BEAC           68 70  250/ 12/ 14 1021.5F
TOWER C          NOT AVBL

$$
FLZ011-016>038-118-127-128-134-139-239-212000-
NORTH FLORIDA
  
CITY           SKY/WX    TMP DP  RH WIND       PRES   REMARKS
MARIANNA       FAIR      75  35  23 NW6       30.13F                  
TALLAHASSEE    FAIR      74  36  25 VRB5      30.13F                  
PERRY          FAIR      75  38  26 W10       30.13F                  
LIVE OAK       SUNNY     73  37  27 W9        30.11F                  
CROSS CITY     FAIR      74  43  32 SW10      30.12F                  
LAKE CITY      FAIR      72  39  30 NW3G20    30.11F                  
GAINESVILLE    FAIR      77  44  30 NW13      30.13F                  
PALATKA        FAIR     N/A N/A N/A NW6       30.10F                  
MAYPORT NAS    FAIR      74  42  31 W13G23    30.09F                  
JACKSONVILLE   FAIR      75  41  29 NW16      30.08F                  
JAX NAS        FAIR      75  38  26 W13G20    30.10F                  
JAX CECIL      SUNNY     79  41  25 W7G17     30.10F                  
FERNANDINA BEA FAIR      75  42  30 NW13G23   30.08F                  
ST AUGUSTINE   FAIR      74  44  34 VRB6      30.10F                  
PALM COAST     SUNNY     73  45  35 W8        30.10F                  

STATION/POSITION SKY/WX   TEMP    WIND        PRES    WAVE   SWELL
                          AIR SEA DIR/SP/G            HT/PER HT/PER
                          (F)     (DEG/KT/KT) (MB)    (FT/S) (FT/S)
SHELL POINT      NOT AVBL
KEATON BEACH               67     240/ 11/ 13 1020.7F
CEDAR KEY                  69     280/ 10/ 15 1020.6F
FERNANDINA                 72 69  260/  8/ 12 1019.5F
30.7N   81.3W                 68                N/A     2/ 9
MAYPORT                    71 69  240/  9/ 14 1018.9F
31.4N   80.9W              68 67  260/  8/ 10 1018.3F   2/ 8   2/ 8
ST AUGUSTINE               68 73   70/  6/  8 1019.4F

$$
FLZ040-043>046-052-053-057-058-063-144-212000-
INTERIOR CENTRAL FLORIDA
  
CITY           SKY/WX    TMP DP  RH WIND       PRES   REMARKS
OCALA          FAIR      73  42  32 N9        30.13F                  
LEESBURG       FAIR      75  40  28 NW5       30.12F                  
SANFORD        FAIR      74  43  32 MISG      30.10F                  
ORLANDO EXEC   FAIR      75  38  26 W13G22    30.11F                  
ORLANDO INTL   FAIR      75  40  28 NW8G17    30.11F                  
KISSIMMEE      FAIR      75  42  30 N8G16     30.12F                  
WINTER HAVEN   FAIR      76  43  30 VRB6      30.12F                  
LAKELAND       SUNNY     73  45  35 W3        30.12F                  
SEBRING        FAIR      77  45  31 NW9       30.11F                  
OKEECHOBEE     FAIR      77  45  31 W10G20    30.11F                  

$$
FLZ041-047-054-059-064-141-147-212000-
EAST CENTRAL FLORIDA
  
CITY           SKY/WX    TMP DP  RH WIND       PRES   REMARKS
ORMOND BEACH   SUNNY     73  43  33 W8        30.11F                  
DAYTONA BEACH  FAIR      76  46  34 N8        30.10F                  
DELAND         FAIR      73  43  33 CALM      30.10F                  
NEW SMYRNA BEA SUNNY     73  46  38 E9        30.12F                  
JFK SPACE CTR  FAIR      74  51  43 NW5       30.10F                  
TITUSVILLE     MOSUNNY   79  41  25 NW12      30.11F                  
PATRICK AFB    SUNNY     77  43  29 W7        30.10F                  
MELBOURNE      FAIR      77  48  35 W13       30.10F                  
VERO BEACH     FAIR      78  45  30 W9        30.10F                  
FT PIERCE      FAIR      79  46  31 N9        30.09F                  
STUART         SUNNY     77  46  33 NW9       30.11F                  

STATION/POSITION SKY/WX   TEMP    WIND        PRES    WAVE   SWELL
                          AIR SEA DIR/SP/G            HT/PER HT/PER
                          (F)     (DEG/KT/KT) (MB)    (FT/S) (FT/S)
28.5N   80.2W              68     350/  8/ 12 1020.3F   3/ 8   2/ 8
28.9N   78.5W              70 78  280/ 14/ 21 1019.3F   6/ 6   3/ 8
TRIDENT PIER               74 76  340/  5/  9 1020.8F
28.4N   80.5W                 76                N/A     1/ 9
27.5N   80.2W                 75                N/A     2/ 9

$$
FLZ050-056-061-142-242-148-248-149-249-151-251-155-255-
160-260-212000-
WEST CENTRAL FLORIDA
  
CITY           SKY/WX    TMP DP  RH WIND       PRES   REMARKS
CRYSTAL RIVER  FAIR      72  37  28 W7        30.14F                  
INVERNESS      FAIR      73  39  29 NW6       30.12F                  
BROOKSVILLE    FAIR      74  38  27 NW9       30.14F                  
CLEARWATER AIR FAIR      70  45  40 NW6G16    30.14F                  
ST PETE CLEARW FAIR      73  46  38 NW12      30.14S                  
TAMPA INTL     FAIR      76  48  37 W13       30.13F                  
PLANT CITY     FAIR      77  41  27 CALM      30.14F                  
MACDILL AFB    FAIR      75  45  34 NW8       30.12F                  
PETER O KNIGHT FAIR      75  50  41 W10G17    30.13F                  
ST PETERSBURG  FAIR      72  48  42 E12       30.11F                  
SARASOTA       FAIR      76  49  38 W14       30.11F                  
VENICE         FAIR      75  48  38 NW15      30.13F                  

STATION/POSITION SKY/WX   TEMP    WIND        PRES    WAVE   SWELL
                          AIR SEA DIR/SP/G            HT/PER HT/PER
                          (F)     (DEG/KT/KT) (MB)    (FT/S) (FT/S)
27.3N   84.2W                 75                N/A     4/ 7
CLEARWATER BEACH           68 73  340/  7/  9 1021.1F
MIDDLE TAMPA BAY           69     310/  9/ 12 1020.7F
VENICE                     70 76  300/ 13/ 15 1020.1F

$$
FLZ066-069-070-075>078-162-262-165-265-212000-
SOUTHWEST FLORIDA AND KEYS
  
CITY           SKY/WX    TMP DP  RH WIND       PRES   REMARKS
PUNTA GORDA    SUNNY     75  45  33 W5        30.13F                  
FT MYERS       FAIR      77  51  40 W10       30.11F                  
SOUTHWEST INTL FAIR      77  52  41 W10       30.11F                  
NAPLES         FAIR      76  58  53 NW6       30.12F                  
MARCO ISLAND   FAIR      78  55  44 W10       30.12                   
IMMOKALEE      FAIR      81  52  36 VRB3G13   30.08F                  
MARATHON       FAIR      81  53  37 NW5       30.10F                  
KEY WEST NAS   FAIR      79  61  53 N13       30.11F                  
KEY WEST INTL  FAIR      80  62  54 NE8       30.11F                  

STATION/POSITION SKY/WX   TEMP    WIND        PRES    WAVE   SWELL
                          AIR SEA DIR/SP/G            HT/PER HT/PER
                          (F)     (DEG/KT/KT) (MB)    (FT/S) (FT/S)
NAPLES                     72 77  240/  6/  8 1020.2F
DRY TORTUGAS               73      40/ 10/ 13 1020.1F
SAND KEY                   74                 1019.9F
SOMBRERO KEY               74                 1019.1F

$$
FLZ067-068-071>074-168-172>174-212000-
SOUTHEAST FLORIDA 
  
CITY           SKY/WX    TMP DP  RH WIND       PRES   REMARKS
W PALM BEACH   FAIR      77  51  40 W7G18     30.10F                  
BOCA RATON     MOSUNNY   81  54  39 N13       30.10F                  
FT LAUDER-EXEC FAIR      81  52  36 SW9       30.09F                  
FT LAUDERDALE  FAIR      78  53  41 VRB3      30.08F                  
POMPANO BEACH  FAIR      79  52  38 CALM      30.09F                  
PEMBROKE PINES FAIR      79  51  37 CALM      30.11F                  
OPA LOCKA      FAIR      79  53  40 VRB3      30.10F                  
MIAMI          FAIR      78  53  41 SW7       30.10F                  
WEST KENDALL   FAIR      81  56  42 NW7       30.09F                  
HOMESTEAD      NOT AVBL                                               

STATION/POSITION SKY/WX   TEMP    WIND        PRES    WAVE   SWELL
                          AIR SEA DIR/SP/G            HT/PER HT/PER
                          (F)     (DEG/KT/KT) (MB)    (FT/S) (FT/S)
PORT EVERGLADES            73      70/  7/  9 1020.1
VIRGINIA KEY               76 80   CALM  /  4 1018.5F
LAKE WORTH                 72 78   80/  6/ 10 1020.5F
SETTLEMENT POINT           72     290/  5/  6 1019.6F

$$